GORIZONT 25 [-]

Last updated on Aug. 13, 2020, 5:30 a.m. UTC

1 21922U 92017A   20225.91764057  .00000051  00000-0  00000-0 0  9991
2 21922  14.8564 359.3100 0029158  56.6949 300.8733  0.99842103103623
UTC
Height (km)
Latitude
Longitude
Inclination
Orbital Period
UTC large
Height (km)
Speed (km/s)
/
Latitude / Longitude
Inclination (degrees)
Orbital Period (minutes)
Azimuth
Elevation
Range (km)
Doppler Factor
iOS Compass Heading
iOS Angle

Next 30 passes for location: Hong Kong

Rise time Rise Azimuth (degrees) Set time Set Azimuth (degrees) Duration Max altitude (degrees)

No matching passes for this satellites